Location: Unspecified
(0.0000°N, 0.0000°E)
Time: 14:02:46
(UTC+00:00)

Vanguard 3 - Pass Details

Date: 06 December 2025
Orbit: 507 x 3207 km, 33.3° (Epoch: 22 January)

Event Time Altitude Azimuth Distance (km) Brightness Sun altitude
Rises 01:29:48 0° 270° (W) 4,535 - -57.1°
Reaches altitude 10° 01:32:55 10° 259° (W) 3,910 - -56.5°
Maximum altitude 01:42:15 31° 202° (SSW) 3,461 - -54.8°
Exits shadow 01:42:56 30° 197° (SSW) 3,521 10.3 -54.7°
Drops below altitude 10° 01:56:09 10° 147° (SSE) 5,812 11.9 -52.1°
Sets 02:02:16 0° 137° (SE) 7,059 12.5 -50.9°
